Weather History for KLAF - November, 2012

Change the Weather History Date:

Saturday, November 24, 2012

  Actual Average Record
Temperature  
Mean Temperature 28 °F 39 °F  
Max Temperature 31 °F 47 °F - ()
Min Temperature 25 °F 31 °F - ()
Degree Days  
Heating Degree Days 37 26  
Month to date heating degree days 576 500  
Since 1 July heating degree days 1157 934  
Cooling Degree Days 0 0  
Month to date cooling degree days 0 0  
Year to date cooling degree days 1181 982  
Moisture  
Dew Point 17 °F    
Average Humidity 70    
Maximum Humidity 81    
Minimum Humidity 58    
Precipitation  
Precipitation 0.00 in 0.11 in - ()
Month to date precipitation 0.80 2.37  
Year to date precipitation 27.70 33.47  
Sea Level Pressure  
Sea Level Pressure 30.22 in    
Wind  
Wind Speed 6 mph (West)    
Max Wind Speed 13 mph    
Max Gust Speed 16 mph    
Visibility 10 miles    
Events      
T = Trace of Precipitation, MM = Missing Value Source: NWS Daily Summary

Daily Weather History Graph

Daily Weather History Graph

Search for Another Location

Airport or City:

Trip Planner

Search our weather history database for the weather conditions in past years. The results will help you decide how hot, cold, wet, or windy it might be!

Date:

Astronomy

Nov. 24, 2012 Rise Set
Actual Time 7:44 AM EST 5:24 PM EST
Civil Twilight 7:14 AM EST 5:54 PM EST
Nautical Twilight 6:41 AM EST 6:27 PM EST
Astronomical Twilight 6:08 AM EST 7:00 PM EST
Moon 3:09 PM EST (11/24) 4:00 AM EST (11/24)
Length of Visible Light 10h 39m
Length of Day
9h 39m
Waxing Gibbous, 87% of the Moon is Illuminated
Nov 24
Waxing Gibbous
Nov 28
Full
Dec 6
Last Quarter
Dec 13
New
Dec 20
First Quarter

Hourly Weather History & Observations

Time (EST) Temp. Windchill Dew Point Humidity Pressure Visibility Wind Dir Wind Speed Gust Speed Precip Events Conditions
12:54 AM 25.0 °F 19.3 °F 17.1 °F 72% 30.24 in 10.0 mi West 4.6 mph - N/A   Overcast
1:10 AM 24.8 °F 19.1 °F 17.6 °F 74% 30.21 in 10.0 mi West 4.6 mph - N/A   Overcast
1:54 AM 26.1 °F 19.4 °F 18.0 °F 71% 30.24 in 10.0 mi West 5.8 mph - N/A   Overcast
2:54 AM 26.1 °F 18.4 °F 17.1 °F 69% 30.24 in 10.0 mi NW 6.9 mph - N/A   Overcast
3:54 AM 26.1 °F 16.8 °F 16.0 °F 66% 30.25 in 10.0 mi WNW 9.2 mph - N/A   Overcast
4:54 AM 26.1 °F 16.8 °F 16.0 °F 66% 30.25 in 10.0 mi North 9.2 mph - N/A   Overcast
5:54 AM 26.1 °F 19.4 °F 16.0 °F 66% 30.26 in 10.0 mi NNW 5.8 mph - N/A   Overcast
6:54 AM 26.1 °F 19.4 °F 16.0 °F 66% 30.26 in 10.0 mi NNW 5.8 mph - N/A   Overcast
7:54 AM 26.1 °F 20.5 °F 16.0 °F 66% 30.27 in 10.0 mi NW 4.6 mph - N/A   Overcast
8:54 AM 27.0 °F - 17.1 °F 66% 30.27 in 10.0 mi Calm Calm - N/A   Overcast
9:22 AM 26.6 °F 17.5 °F 15.8 °F 64% 30.25 in 10.0 mi WNW 9.2 mph - N/A   Overcast
9:54 AM 27.0 °F 17.3 °F 15.1 °F 61% 30.28 in 10.0 mi WNW 10.4 mph - N/A   Overcast
10:54 AM 28.9 °F 21.1 °F 16.0 °F 58% 30.29 in 10.0 mi NW 8.1 mph - N/A   Overcast
11:54 AM 30.0 °F 22.4 °F 17.1 °F 59% 30.29 in 10.0 mi West 8.1 mph - N/A   Overcast
12:54 PM 30.0 °F 23.2 °F 18.0 °F 61% 30.26 in 10.0 mi Variable 6.9 mph - N/A   Overcast
1:54 PM 28.9 °F 22.8 °F 17.1 °F 61% 30.25 in 10.0 mi WSW 5.8 mph - N/A   Overcast
2:01 PM 28.4 °F 20.4 °F 17.6 °F 64% 30.23 in 10.0 mi WNW 8.1 mph - N/A   Overcast
2:54 PM 30.0 °F 26.5 °F 18.0 °F 61% 30.23 in 10.0 mi Variable 3.5 mph - N/A   Mostly Cloudy
3:07 PM 30.2 °F 21.9 °F 17.6 °F 60% 30.20 in 10.0 mi WSW 9.2 mph - N/A   Overcast
3:54 PM 30.0 °F 23.2 °F 17.1 °F 59% 30.22 in 10.0 mi WSW 6.9 mph - N/A   Mostly Cloudy
4:50 PM 30.2 °F - 17.6 °F 60% 30.18 in 10.0 mi Calm Calm - N/A   Mostly Cloudy
4:54 PM 30.0 °F 25.2 °F 18.0 °F 61% 30.20 in 10.0 mi WSW 4.6 mph - N/A   Scattered Clouds
5:54 PM 28.0 °F - 17.1 °F 63% 30.19 in 10.0 mi Calm Calm - N/A   Partly Cloudy
6:54 PM 27.0 °F - 18.0 °F 69% 30.19 in 10.0 mi Calm Calm - N/A   Partly Cloudy
7:54 PM 26.1 °F 20.5 °F 19.0 °F 75% 30.17 in 10.0 mi SSW 4.6 mph - N/A   Clear
8:54 PM 25.0 °F 18.1 °F 19.0 °F 78% 30.15 in 10.0 mi SW 5.8 mph - N/A   Clear
9:54 PM 26.1 °F 19.4 °F 19.9 °F 78% 30.13 in 10.0 mi SSW 5.8 mph - N/A   Clear
10:54 PM 26.1 °F 19.4 °F 19.9 °F 78% 30.10 in 10.0 mi SSW 5.8 mph - N/A   Mostly Cloudy
11:54 PM 27.0 °F 20.5 °F 19.9 °F 75% 30.08 in 10.0 mi South 5.8 mph - N/A   Partly Cloudy